Location: Leedale
(52.5833°N, 114.4833°W)
Time: 15:58:36
(UTC+00:00)

Envisat - Pass Details

Date: 11 August 2024
Orbit: 762 x 764 km, 98.3° (Epoch: 09 September)

Event Time Altitude Azimuth Distance (km) Brightness Sun altitude
Rises 09:30:20 0° 27° (NNE) 3,241 8.0 -18.5°
Reaches altitude 10° 09:33:33 10° 48° (NE) 2,308 6.6 -18.3°
Maximum altitude 09:36:42 16° 87° (E) 1,902 5.4 -18.0°
Drops below altitude 10° 09:39:49 10° 125° (SE) 2,297 5.4 -17.8°
Enters shadow 09:42:45 - 145° (SE) 3,136 5.9 -17.6°
